Вернуться в каталог

COSMOS 2334

АктивенВоенныеPO
NORAD 24304·PAYLOAD·🇷🇺 Russia

Запущен Sep 5, 1996 с Plesetsk Cosmodrome

Loading…

Ближайшие Пролёты (ближайшие 24 часа)

TLE

СвежийSource: Space-Track

Эпоха: Sep 14, 2026, 14:53 UTC

1 24304U 96052A   26257.62023380  .00000053  00000-0  39960-4 0  9990
2 24304  82.9381  14.5458 0030047  15.7868 355.3765 13.73817760504918

Отслеживайте COSMOS 2334 в реальном времени с AllMySat

Download on the App Store